Location: Domont
(49.0278°N, 2.3264°E)
Time: 01:11:34
(UTC+00:00)

ZACube-1 - Pass Details

Date: 10 July 2022
Orbit: 582 x 661 km, 97.6° (Epoch: 08 August)

Event Time Altitude Azimuth Distance (km) Brightness Sun altitude
Rises 03:14:24 0° 19° (NNE) 2,984 ? -6.2°
Reaches altitude 10° 03:16:45 10° 28° (NNE) 2,076 ? -5.9°
Maximum altitude 03:21:00 38° 97° (E) 1,002 ? -5.4°
Drops below altitude 10° 03:25:15 10° 166° (SSE) 2,075 ? -4.9°
Sets 03:27:36 0° 174° (S) 2,982 ? -4.6°
